Date,TemperatureHighF,TemperatureAvgF,TemperatureLowF,DewpointHighF,DewpointAvgF,DewpointLowF,HumidityHigh,HumidityAvg,HumidityLow,PressureMaxIn,PressureMinIn,WindSpeedMaxMPH,WindSpeedAvgMPH,GustSpeedMaxMPH,PrecipitationSumIn
2013-1-1,55.7,53.0,49.9,35.7,24.4,5.5,52,36,14,30.18,29.94,3,0,4,0.01
2013-1-2,54.3,51.8,46.3,28.6,12.7,5.3,38,22,14,30.20,29.88,13,3,14,0.02
2013-1-3,46.3,42.8,34.3,20.4,15.1,9.9,42,32,25,30.28,30.12,7,1,7,0.08
2013-1-4,53.6,40.3,28.7,36.4,22.2,6.9,66,49,27,30.36,30.23,10,0,10,0.01
2013-1-5,51.9,39.3,26.0,35.9,20.8,6.3,67,48,31,30.43,30.29,9,0,9,0.00
2013-1-6,51.5,46.6,39.7,38.4,23.4,11.1,61,41,25,30.30,30.08,5,0,5,0.01
2013-1-7,56.4,44.5,34.1,38.8,23.2,8.4,65,44,25,30.42,30.16,16,1,16,0.00
2013-1-8,66.0,51.5,41.3,51.5,33.7,12.1,64,52,24,30.43,30.33,9,1,10,0.00
2013-1-9,73.6,56.0,44.1,58.3,23.6,4.3,60,31,12,30.41,30.34,8,1,9,0.00
2013-1-10,72.7,60.2,51.0,57.1,33.4,5.4,62,42,12,30.49,30.38,15,1,15,0.00
2013-1-11,75.7,61.6,52.5,58.2,33.2,8.8,64,38,12,30.39,30.16,10,1,11,0.02
2013-1-12,80.0,65.8,57.6,63.3,27.5,-2.2,59,28,6,30.19,30.10,13,0,13,0.01
2013-1-13,77.2,65.6,54.8,60.8,32.1,3.2,59,32,8,30.18,30.07,11,1,13,0.00
2013-1-14,79.8,65.1,53.6,63.0,30.1,-4.5,59,30,5,30.19,30.09,11,1,11,0.01
2013-1-15,78.2,65.4,56.1,61.8,29.6,5.7,59,29,9,30.17,30.03,7,0,10,0.01
2013-1-16,80.5,69.4,58.2,63.1,31.8,6.0,59,30,9,30.04,29.93,17,2,20,0.00
2013-1-17,79.8,63.9,42.9,62.3,34.7,8.2,58,37,10,30.04,29.70,24,3,24,0.49
2013-1-18,52.4,42.6,32.5,35.7,26.1,17.8,67,52,42,30.53,30.04,22,4,22,0.01
2013-1-19,61.1,43.8,30.6,44.5,28.0,15.0,66,54,44,30.52,30.21,7,0,7,0.01
2013-1-20,67.1,51.0,38.4,44.5,29.5,16.7,65,45,29,30.22,30.01,12,0,12,0.00
2013-1-21,66.5,49.2,33.5,45.9,29.9,15.3,66,48,33,30.08,29.91,12,1,17,0.00
2013-1-22,50.0,40.6,28.1,35.5,24.2,17.1,70,54,30,30.27,29.99,15,2,15,0.00
2013-1-23,46.9,35.3,26.5,26.5,16.6,9.2,71,48,26,30.41,30.15,11,1,11,0.00
2013-1-24,54.2,41.0,28.0,42.1,24.9,10.4,66,53,37,30.53,30.03,23,5,23,0.00
2013-1-25,36.0,30.6,23.6,24.6,18.4,10.2,69,60,47,30.53,30.16,11,1,13,0.01
2013-1-26,51.0,40.2,32.2,36.9,29.1,19.9,69,64,51,30.38,30.13,12,2,13,0.00
2013-1-27,48.1,35.9,27.5,31.9,23.5,14.2,69,61,49,30.58,30.38,13,1,13,0.00
2013-1-28,63.6,47.3,30.5,49.8,31.5,18.2,67,55,38,30.52,30.28,7,1,7,0.00
2013-1-29,77.1,58.6,41.0,60.7,35.8,19.1,60,43,20,30.28,30.12,11,0,11,0.00
2013-1-30,74.3,68.0,60.8,55.4,37.2,22.0,52,33,19,30.12,29.55,28,5,28,0.01
2013-1-31,70.8,50.6,40.2,44.0,32.2,24.2,66,50,30,30.12,29.54,22,3,22,0.35
2013-2-1,54.2,43.5,27.9,34.1,22.1,7.6,66,45,19,30.39,30.06,22,3,22,0.00
2013-2-2,52.9,39.1,22.8,37.3,24.3,14.3,72,56,33,30.43,30.07,11,1,12,0.00
2013-2-3,58.7,46.4,34.5,36.6,31.3,22.8,68,57,38,30.07,29.88,17,1,17,0.00
2013-2-4,51.2,39.9,27.0,33.9,26.7,15.8,70,60,43,30.17,30.01,8,0,8,0.00
2013-2-5,67.4,54.6,36.7,44.1,36.2,22.0,67,51,32,30.07,29.91,8,1,15,0.00
2013-2-6,68.5,53.6,40.5,49.3,34.9,21.6,65,50,36,30.24,30.00,13,1,13,0.00
2013-2-7,55.5,50.6,40.7,41.9,28.7,22.4,60,43,34,30.23,29.75,21,4,21,1.08
2013-2-8,62.1,54.3,46.1,48.5,38.1,24.8,67,55,34,30.05,29.66,20,3,21,0.27
2013-2-9,57.4,44.5,32.4,38.7,28.5,18.1,70,55,30,30.37,30.05,18,3,20,0.00
2013-2-10,63.4,47.7,28.9,47.4,33.5,16.3,70,58,43,30.48,30.24,13,1,13,0.01
2013-2-11,66.7,61.6,50.8,40.0,30.2,26.1,43,31,25,30.29,29.99,13,2,17,0.52
2013-2-12,62.3,57.2,52.0,49.3,34.2,25.2,63,43,29,30.11,29.92,11,1,12,0.44
2013-2-13,63.3,54.3,48.3,47.6,30.6,23.9,62,41,27,29.96,29.64,14,1,17,0.52
2013-2-14,54.1,47.8,39.1,40.4,34.2,23.4,67,59,50,30.09,29.83,13,2,13,0.00
2013-2-15,62.7,46.3,31.8,44.6,30.3,17.3,67,54,39,30.11,29.96,8,0,9,0.00
2013-2-16,51.0,39.6,33.3,39.7,24.3,18.0,66,54,45,29.97,29.80,17,3,17,0.20
2013-2-17,40.5,33.3,26.9,26.4,20.7,15.1,70,60,48,30.32,29.96,19,1,19,0.16
2013-2-18,54.1,37.1,23.3,30.8,21.0,12.6,70,54,26,30.46,30.30,14,1,14,0.01
2013-2-19,60.3,48.6,31.3,47.7,30.0,18.4,63,49,32,30.30,29.94,15,1,16,0.05
2013-2-20,57.9,45.1,32.2,34.0,26.6,19.3,69,50,25,30.14,29.99,10,1,10,0.01
2013-2-21,59.5,44.5,33.2,38.7,28.2,20.3,69,54,31,30.23,30.10,13,2,13,0.00
2013-2-22,48.1,43.5,39.3,33.3,27.5,22.4,67,54,43,30.29,30.08,12,2,12,0.25
2013-2-23,46.9,44.1,41.2,24.0,22.7,21.5,45,42,40,30.08,29.79,10,2,10,0.53
2013-2-24,64.7,52.1,41.4,49.7,33.0,22.9,64,49,32,30.01,29.80,12,1,13,0.01
2013-2-25,45.0,43.0,39.1,33.6,31.0,21.2,68,63,43,30.18,29.99,17,4,17,0.00
2013-2-26,70.2,56.9,41.5,44.3,29.4,21.5,66,37,17,30.06,29.55,22,2,22,1.34
2013-2-27,61.2,53.3,45.9,44.8,39.0,30.1,66,59,43,29.85,29.66,17,2,22,0.00
2013-2-28,58.2,49.0,38.4,41.1,33.9,25.3,66,56,42,29.87,29.75,16,1,17,0.00
2013-3-1,56.3,44.8,35.0,36.2,30.2,22.8,68,57,42,29.93,29.83,14,1,15,0.00
2013-3-2,48.8,43.1,34.5,34.4,30.0,22.4,68,60,51,29.91,29.83,14,1,14,0.00
2013-3-3,49.9,40.4,32.0,29.0,26.0,21.9,69,57,39,30.00,29.87,17,2,17,0.00
2013-3-4,53.2,39.9,27.7,28.0,22.2,18.3,71,52,26,30.16,29.99,19,2,19,0.00
2013-3-5,68.8,48.1,32.5,48.6,33.5,22.1,67,58,36,30.13,29.63,15,1,15,0.02
2013-3-6,58.6,48.7,40.8,44.9,30.6,26.3,65,50,37,30.04,29.60,24,6,28,0.01
2013-3-7,57.7,44.9,33.6,36.7,31.2,24.5,70,60,41,30.22,30.04,18,2,18,0.00
2013-3-8,57.4,44.6,30.2,33.0,28.7,21.3,71,56,32,30.27,30.15,21,3,21,0.00
2013-3-9,64.1,48.3,34.4,40.4,32.8,23.5,70,56,37,30.32,30.23,14,3,15,0.00
2013-3-10,69.3,50.3,32.2,43.0,29.3,18.3,69,47,19,30.32,30.21,10,1,12,0.00
2013-3-11,72.4,57.9,39.7,54.8,41.9,25.0,69,55,39,30.24,29.92,17,2,20,0.00
2013-3-12,72.1,66.5,62.3,57.5,42.6,29.8,61,43,27,29.95,29.76,16,2,19,0.09
2013-3-13,63.6,55.8,44.3,39.9,31.9,26.8,67,42,26,30.10,29.94,15,3,17,0.15
2013-3-14,54.0,43.2,33.5,33.5,24.9,21.2,69,50,31,30.28,30.09,19,4,21,0.00
2013-3-15,65.8,46.9,29.4,40.7,29.4,17.3,70,53,28,30.23,29.99,10,1,10,0.00
2013-3-16,81.1,68.3,51.5,50.9,45.6,40.2,66,46,29,29.99,29.76,19,3,23,0.00
2013-3-17,80.3,67.3,53.3,56.6,48.9,38.5,65,52,35,30.06,29.88,13,1,14,0.00
2013-3-18,68.0,56.6,48.3,54.5,42.3,34.9,66,59,44,30.13,29.87,18,2,20,0.00
2013-3-19,71.0,56.6,49.7,52.9,38.4,31.0,65,51,33,29.94,29.74,18,2,19,0.73
2013-3-20,56.8,48.1,36.8,36.5,29.3,15.0,71,51,22,30.12,29.81,15,2,15,0.00
2013-3-21,54.4,43.4,34.1,31.6,22.8,13.7,71,47,21,29.97,29.73,19,2,22,0.00
2013-3-22,54.4,40.6,28.6,34.3,23.5,17.4,73,53,28,30.12,29.97,11,1,11,0.00
2013-3-23,52.8,42.7,35.4,42.2,31.3,24.8,70,64,55,30.09,29.91,7,0,9,0.10
2013-3-24,55.6,47.2,41.2,34.6,30.0,26.7,60,51,43,29.93,29.45,19,3,20,1.62
2013-3-25,54.5,47.4,42.0,37.8,30.2,26.3,69,52,39,29.89,29.53,19,3,20,0.00
2013-3-26,51.0,43.2,32.7,31.9,28.7,24.4,71,57,41,30.14,29.89,17,2,18,0.00
2013-3-27,57.6,44.9,32.5,32.9,28.8,24.2,72,56,32,30.25,30.14,24,3,28,0.00
2013-3-28,58.6,42.9,28.5,32.0,26.9,19.6,71,56,30,30.29,30.18,15,2,23,0.00
2013-3-29,63.7,48.6,29.0,39.3,29.7,19.8,70,51,25,30.35,30.21,9,1,17,0.00
2013-3-30,66.8,55.0,47.7,49.3,42.0,33.4,67,62,46,30.25,30.11,14,1,14,0.00
2013-3-31,75.0,62.8,49.4,58.6,47.1,35.2,67,57,45,30.12,29.84,16,2,21,0.13
2013-4-1,74.5,62.2,54.6,58.7,42.3,36.1,64,49,37,29.92,29.82,11,1,15,0.18
2013-4-2,66.5,54.2,46.7,44.1,39.2,34.0,68,58,36,30.16,29.92,18,2,18,0.00
2013-4-3,61.5,54.1,46.2,40.8,35.3,29.6,68,50,35,30.25,30.09,20,3,20,0.00
2013-4-4,51.3,48.9,44.9,39.7,35.6,30.1,68,60,50,30.27,29.84,18,2,18,0.68
2013-4-5,58.2,49.4,42.4,46.7,36.0,27.8,66,60,53,30.03,29.85,14,3,16,0.06
2013-4-6,70.7,53.8,37.7,50.2,38.5,25.3,68,57,35,30.27,30.02,13,1,13,0.00
2013-4-7,75.7,57.9,39.2,54.1,42.0,26.9,68,56,38,30.27,30.14,11,1,13,0.00
2013-4-8,80.3,65.2,49.3,60.7,47.8,32.0,65,53,38,30.20,30.09,13,1,14,0.00
2013-4-9,84.1,68.7,54.7,65.0,50.4,35.7,65,52,35,30.22,30.10,10,1,11,0.00
2013-4-10,84.8,71.2,58.3,66.3,53.7,38.7,65,54,40,30.16,30.01,18,1,18,0.00
2013-4-11,84.8,70.8,59.5,68.8,52.9,39.8,62,53,38,30.02,29.84,15,1,15,0.03
2013-4-12,83.7,73.5,66.8,68.8,53.4,44.0,62,50,37,29.86,29.66,16,2,16,0.93
2013-4-13,77.0,63.0,51.4,57.7,47.3,37.8,68,58,35,30.02,29.77,18,1,19,0.01
2013-4-14,76.1,61.2,49.4,59.3,46.3,35.3,66,58,46,30.10,30.00,11,0,11,0.01
2013-4-15,72.8,66.2,62.2,59.5,49.3,42.0,63,55,46,30.17,29.92,7,1,10,0.09
2013-4-16,78.4,68.1,55.8,63.4,51.9,38.5,64,56,43,30.26,30.16,10,1,11,0.01
2013-4-17,83.4,68.9,54.8,65.8,52.5,38.1,65,56,41,30.24,30.12,13,1,13,0.00
2013-4-18,79.8,69.1,59.1,64.4,51.6,40.2,63,54,41,30.17,30.04,15,1,15,0.03
2013-4-19,82.5,73.5,66.6,67.2,52.6,42.5,61,48,35,30.04,29.82,19,2,20,0.34
2013-4-20,68.1,56.4,45.5,46.4,41.5,34.4,68,58,41,30.25,29.88,15,2,15,0.25
2013-4-21,69.4,55.2,40.6,50.8,40.7,29.1,67,59,45,30.40,30.25,19,2,20,0.00
2013-4-22,66.7,54.9,43.9,51.4,43.1,34.0,70,65,55,30.39,30.17,19,8,21,0.00
2013-4-23,68.7,57.2,49.9,54.7,43.6,35.1,67,60,55,30.22,30.13,17,4,17,0.02
2013-4-24,78.7,63.3,46.6,62.4,48.8,33.0,65,59,46,30.18,30.04,13,1,13,0.00
2013-4-25,77.7,66.4,56.1,63.2,50.8,41.6,65,57,44,30.25,30.06,14,2,14,0.00
2013-4-26,75.4,62.0,48.5,53.1,44.2,34.4,68,53,35,30.40,30.24,13,1,16,0.00
2013-4-27,76.2,61.9,50.4,56.0,45.0,39.4,68,55,35,30.36,30.26,7,1,11,0.04
2013-4-28,73.3,63.5,55.6,58.9,49.6,41.3,64,60,55,30.26,30.08,13,1,13,0.00
2013-4-29,74.4,66.6,63.6,60.5,46.7,41.8,62,49,42,30.05,29.96,10,0,10,2.30
2013-4-30,77.6,67.1,61.8,63.1,47.4,40.3,62,49,40,30.12,29.97,12,2,13,0.07
2013-5-1,73.9,64.5,58.4,59.6,46.0,38.4,62,52,40,30.21,30.09,16,4,16,0.01
2013-5-2,71.4,64.1,60.8,54.6,42.5,37.8,56,45,39,30.23,30.17,16,3,16,0.05
2013-5-3,62.2,58.0,56.7,45.1,38.6,35.4,56,49,44,30.18,30.10,17,5,17,0.00
2013-5-6,76.6,67.3,56.2,62.1,47.7,34.7,64,50,33,29.89,29.80,10,1,16,0.81
2013-5-7,72.3,61.5,51.5,57.1,44.6,32.2,64,54,40,29.96,29.87,6,0,12,0.00
2013-5-8,78.5,66.4,51.9,60.2,48.1,31.1,63,52,35,30.01,29.93,11,0,11,0.01
2013-5-9,83.6,71.2,57.4,64.1,51.2,34.2,62,50,36,30.07,29.98,14,1,14,0.00
2013-5-10,88.3,73.1,58.8,67.6,52.4,33.5,62,49,31,30.07,29.98,13,1,13,0.00
2013-5-11,85.2,75.0,64.7,67.7,55.3,36.0,62,51,29,30.01,29.82,11,0,11,0.00
2013-5-12,80.8,72.9,59.9,60.8,52.9,45.6,64,50,38,29.98,29.80,14,1,14,0.00
2013-5-13,72.3,61.9,49.4,48.6,42.6,36.7,67,51,29,30.13,29.98,17,3,17,0.00
2013-5-14,74.5,60.0,46.0,48.4,40.3,33.0,67,51,29,30.26,30.13,7,1,10,0.00
2013-5-15,87.3,68.4,55.1,64.2,51.4,39.6,65,55,41,30.15,29.95,15,1,15,0.00
2013-5-16,89.5,73.8,62.7,67.5,57.3,46.2,63,57,41,30.01,29.93,10,0,11,0.00
2013-5-17,90.4,76.9,63.9,68.5,58.5,44.2,64,53,39,30.09,29.99,10,0,10,0.00
2013-5-18,86.3,74.2,62.1,70.1,58.1,44.2,64,57,45,30.15,30.06,12,1,12,0.00
2013-5-19,80.5,72.8,67.3,66.5,53.9,47.1,63,52,44,30.15,30.06,7,0,11,0.39
2013-5-20,77.3,71.4,68.7,60.3,49.1,45.6,58,45,40,30.12,30.03,9,0,11,0.88
2013-5-21,81.9,73.1,69.0,67.6,50.9,44.2,62,46,36,30.07,29.98,9,0,11,0.31
2013-5-22,84.2,75.1,66.0,69.2,55.1,42.0,62,50,34,30.03,29.92,14,1,14,0.05
2013-5-23,85.4,73.8,67.3,69.8,50.4,41.9,62,44,33,29.97,29.83,15,0,18,0.63
2013-5-24,80.0,71.0,55.3,63.3,50.4,39.9,67,49,33,30.16,29.78,20,4,21,0.01
2013-5-25,75.6,61.4,45.8,50.8,42.5,32.2,68,52,29,30.30,30.15,12,1,12,0.00
2013-5-26,76.7,63.6,54.6,57.8,46.5,36.3,66,54,41,30.26,30.15,10,1,11,0.00
2013-5-27,80.7,68.8,52.7,64.3,52.1,34.7,65,55,45,30.26,30.17,10,1,10,0.00
2013-5-28,83.6,71.7,59.8,67.9,52.8,37.9,63,52,36,30.25,30.18,13,1,15,0.00
2013-5-29,83.4,73.2,61.2,67.6,54.0,38.5,63,52,34,30.26,30.17,12,1,12,0.00
2013-5-30,87.0,74.3,60.5,70.6,54.7,37.9,62,51,33,30.27,30.17,7,0,9,0.00
2013-5-31,86.0,75.0,65.6,70.5,53.2,39.4,61,48,28,30.23,30.13,11,1,11,0.00
2013-6-1,85.2,75.5,64.7,69.4,55.0,39.1,62,50,29,30.17,30.06,12,1,12,0.00
2013-6-2,84.5,75.6,65.2,69.1,53.9,39.1,61,47,29,30.10,29.94,12,1,15,0.08
2013-6-3,82.0,74.4,69.7,58.8,43.2,38.9,46,33,27,29.96,29.84,10,0,10,1.26
2013-6-4,86.6,75.8,67.5,71.1,51.5,38.0,60,44,26,30.06,29.91,9,1,9,0.00
2013-6-5,82.8,74.1,70.5,66.4,44.3,37.5,58,35,25,30.07,29.99,7,1,9,1.15
2013-6-6,83.2,75.5,71.9,61.4,40.0,30.5,51,28,18,30.00,29.78,11,0,11,1.46
2013-6-7,81.9,76.5,71.8,62.2,38.9,24.5,52,27,15,29.83,29.51,22,2,22,1.67
2013-6-8,88.2,80.6,73.5,71.1,47.5,17.3,57,36,11,30.08,29.83,10,0,10,0.00
2013-6-9,87.7,78.6,72.4,69.0,31.6,-3.0,54,23,4,30.14,30.06,11,0,11,0.10
2013-6-10,88.0,78.1,72.1,67.3,16.5,-31.3,51,16,1,30.11,29.92,18,1,18,0.13
2013-6-11,88.0,76.9,69.8,67.4,11.2,-33.7,52,13,1,30.00,29.89,10,0,12,0.13
2013-6-12,95.9,81.5,69.1,75.7,28.3,-34.5,54,20,1,29.98,29.87,7,0,7,0.02
2013-6-13,96.2,86.4,75.0,75.3,39.0,-30.9,53,29,1,29.89,29.64,17,1,20,0.00
2013-6-14,84.1,75.7,66.7,63.9,38.3,-35.4,56,33,1,30.00,29.71,16,3,17,0.38
2013-6-15,86.0,74.0,60.3,64.8,37.4,-38.0,56,32,1,30.12,30.00,11,0,11,0.00
2013-6-16,87.3,76.0,63.1,67.9,41.6,-37.6,55,35,1,30.16,30.04,13,1,13,0.00
2013-6-17,88.7,77.6,67.4,69.4,26.2,-36.3,54,20,1,30.08,29.95,11,1,13,0.16
2013-6-18,89.2,78.0,72.2,67.9,20.2,-33.0,51,14,1,30.01,29.79,18,0,19,0.10
2013-6-19,78.3,74.5,72.1,43.6,8.4,-33.2,30,6,1,30.07,29.84,12,1,15,1.25
2013-6-20,86.7,75.6,66.6,67.3,33.5,-36.0,55,28,1,30.18,30.06,14,2,14,0.00
2013-6-21,85.2,73.5,62.9,63.8,26.3,-32.8,50,23,1,30.19,30.11,13,2,13,0.03
2013-6-22,83.9,76.6,72.0,53.3,9.3,-30.1,36,6,1,30.14,30.08,11,2,12,0.05
2013-6-23,88.6,78.8,71.4,68.0,18.7,-30.1,51,12,1,30.20,30.12,15,1,15,0.00
2013-6-24,89.7,78.0,72.9,69.2,13.0,-31.3,51,9,1,30.21,30.11,9,0,11,0.02
2013-6-25,91.0,80.7,71.1,70.9,25.7,-31.4,52,17,1,30.15,30.01,15,0,15,0.40
2013-6-26,89.2,79.4,71.4,64.8,17.0,-33.1,45,11,1,30.05,29.93,21,1,21,0.14
2013-6-27,92.3,80.7,70.0,71.3,18.5,-28.9,51,11,1,29.98,29.75,11,1,13,0.19
2013-6-28,92.5,82.8,75.1,70.5,18.2,-27.2,50,11,1,29.79,29.61,10,0,10,0.06
2013-6-29,88.8,78.1,72.8,58.4,4.2,-30.9,37,3,1,29.76,29.62,13,1,14,1.68
2013-6-30,81.8,75.7,73.7,0.0,0.0,0.0,0,0,100,29.81,29.72,7,0,9,0.37
2013-7-1,83.8,77.9,72.8,0.0,0.0,0.0,0,0,100,30.03,29.87,15,1,15,0.92
2013-7-2,79.9,76.1,72.1,0.0,0.0,0.0,0,0,100,30.17,30.02,8,0,10,2.02
2013-7-3,86.8,79.1,74.3,41.8,2.7,-27.0,21,1,1,30.24,30.14,14,1,16,1.05
2013-7-4,88.1,80.8,74.8,64.6,22.2,-28.5,47,14,1,30.25,30.18,11,1,12,0.01
2013-7-5,89.2,80.7,72.9,57.8,15.6,-27.7,35,8,1,30.25,30.17,16,1,16,0.00
2013-7-6,88.3,79.4,71.1,66.1,20.2,-28.8,49,13,1,30.24,30.13,11,1,11,0.00
2013-7-7,88.7,79.3,70.2,62.7,18.4,-30.0,44,11,1,30.19,30.08,10,1,12,0.00
2013-7-8,89.3,79.9,70.0,66.1,22.8,-29.2,47,14,1,30.18,30.09,8,0,9,0.00
2013-7-9,89.6,82.0,74.3,65.4,17.8,-27.8,45,10,1,30.17,30.07,6,1,10,0.00
2013-7-10,88.8,80.9,73.7,62.8,19.9,-28.0,42,12,1,30.12,29.97,15,1,15,0.00
2013-7-11,91.0,81.0,73.8,69.7,19.1,-27.2,50,12,1,30.00,29.87,13,1,13,0.02
2013-7-12,81.6,76.3,72.0,0.0,-0.3,-28.4,3,0,1,29.97,29.86,9,0,9,1.74
2013-7-13,83.4,76.1,72.8,0.0,0.0,0.0,0,0,100,30.10,29.94,13,1,13,0.76
2013-7-14,88.9,81.1,73.2,67.5,23.6,-28.3,50,15,1,30.24,30.10,12,1,14,0.02
2013-7-15,88.0,81.0,75.2,54.4,1.9,-28.0,35,1,1,30.26,30.21,6,0,13,0.25
2013-7-16,92.1,81.3,70.8,71.5,26.1,-28.0,52,18,1,30.27,30.16,7,0,7,0.01
2013-7-17,94.2,81.3,74.3,71.7,16.7,-25.4,49,10,1,30.20,30.08,9,0,9,0.00
2013-7-18,92.0,82.1,72.3,71.4,24.8,-26.6,52,16,1,30.14,30.04,9,0,9,0.01
2013-7-19,90.2,81.8,72.6,65.8,21.1,-27.4,46,12,1,30.12,30.00,11,1,11,0.00
2013-7-20,89.7,79.8,74.9,66.6,14.8,-27.5,47,9,1,30.07,29.95,16,1,16,2.10
2013-7-21,86.8,77.6,73.5,33.4,0.4,-26.6,15,0,1,30.03,29.92,10,0,10,0.14
2013-7-22,89.8,80.8,74.8,61.9,15.6,-27.7,40,9,1,29.97,29.85,10,0,10,32.12
2013-7-23,90.0,81.6,75.1,67.1,20.6,-27.6,48,13,1,29.89,29.74,10,0,11,0.00
2013-7-24,90.5,80.3,72.3,66.2,19.7,-17.7,45,11,2,29.81,29.73,13,0,15,2.21
2013-7-25,88.2,77.5,70.2,60.7,16.4,-29.5,43,10,1,29.99,29.76,12,2,12,0.00
2013-7-26,89.2,78.5,69.6,70.1,24.4,-30.1,54,18,1,30.07,29.98,7,0,9,0.00
2013-7-27,88.3,78.4,68.8,68.6,22.7,-29.5,53,16,1,30.04,29.92,9,0,9,0.00
2013-7-28,89.0,79.3,73.9,65.0,12.6,-28.5,46,8,1,30.01,29.90,9,0,10,0.01
2013-7-29,90.8,80.3,72.2,66.9,16.1,-31.5,46,9,1,30.14,30.00,14,0,14,0.01
2013-7-30,89.9,78.5,71.3,69.0,18.9,-30.4,51,12,1,30.18,30.09,7,0,8,0.11
2013-7-31,86.1,77.8,71.4,47.2,4.5,-27.9,26,3,1,30.13,30.00,9,0,10,0.07
2013-8-1,85.0,77.5,73.3,47.2,3.1,-28.6,28,2,1,30.00,29.89,7,0,9,0.09
2013-8-2,90.2,80.7,73.3,63.8,14.0,-27.2,42,8,1,30.03,29.91,10,0,13,0.00
2013-8-3,91.4,82.7,75.2,69.4,22.2,-27.7,51,13,1,30.03,29.91,9,0,12,0.00
2013-8-4,91.5,81.3,71.6,71.4,31.0,-32.3,53,22,1,29.99,29.88,14,1,15,0.00
2013-8-5,87.2,76.3,66.6,68.4,33.1,-32.2,55,27,3,30.06,29.97,8,1,12,0.00
2013-8-6,83.0,74.7,65.4,60.9,18.1,-35.8,48,12,1,30.06,29.97,4,0,4,0.00
2013-8-7,88.3,78.6,68.0,69.0,31.7,-31.5,54,23,1,30.08,30.01,10,0,10,0.00
2013-8-8,91.0,80.1,69.4,70.9,24.7,-28.3,53,16,1,30.05,29.99,7,0,9,0.00
2013-8-9,77.8,76.1,74.4,0.0,0.0,0.0,0,0,100,30.06,30.01,2,0,3,0.00
2013-8-15,67.4,66.7,66.3,0.0,0.0,0.0,0,0,100,30.11,30.09,3,0,6,0.04
2013-8-16,72.2,68.6,65.9,0.0,0.0,0.0,0,0,100,30.11,30.04,9,1,12,0.02
2013-8-17,76.9,70.9,67.9,0.0,0.0,0.0,0,0,100,30.14,30.04,5,1,10,0.09
2013-8-18,91.6,77.4,70.9,72.2,17.2,-29.8,54,12,1,30.19,30.09,5,0,5,1.85
2013-8-19,82.8,77.2,74.4,37.4,2.9,-28.9,20,2,1,30.15,30.05,11,1,11,0.04
2013-8-20,88.5,77.7,74.6,58.1,6.3,-29.7,36,3,1,30.17,30.06,9,0,9,0.84
2013-8-21,91.3,79.9,70.6,71.2,21.6,-29.1,53,14,1,30.21,30.09,10,0,11,0.00
2013-8-22,90.3,77.6,70.9,69.6,11.0,-30.7,51,7,1,30.14,30.01,18,0,18,0.63
2013-8-23,91.0,81.3,71.4,69.3,22.1,-26.7,50,14,1,30.03,29.91,8,0,9,0.03
2013-8-24,83.7,75.8,69.9,65.2,22.3,-32.8,54,18,1,30.24,29.99,20,2,20,0.02
2013-8-25,81.6,72.2,63.7,63.4,27.4,-36.3,54,24,1,30.32,30.23,12,2,15,0.00
2013-8-26,83.9,72.9,62.5,64.9,27.9,-35.4,54,24,1,30.28,30.11,12,1,12,0.00
2013-8-27,85.9,72.9,62.2,65.0,21.2,-21.4,53,16,2,30.13,29.97,7,0,8,0.00
2013-8-28,91.1,80.1,68.5,70.4,24.5,-34.4,52,17,1,30.01,29.90,6,0,10,0.00
2013-8-29,92.1,78.7,73.0,68.2,13.3,-29.3,47,8,1,29.95,29.84,16,0,16,0.11
2013-8-30,85.7,76.6,69.7,60.4,10.7,-29.0,43,7,1,30.02,29.93,7,1,10,0.01
2013-8-31,90.6,78.1,69.2,68.0,14.2,-25.8,49,9,1,29.97,29.87,6,0,6,0.06
2013-9-1,92.1,81.5,74.5,69.9,14.2,-25.6,49,8,1,29.93,29.81,11,0,11,0.22
2013-9-2,92.0,81.7,74.1,69.0,14.4,-26.5,48,9,1,29.92,29.79,11,0,11,0.59
2013-9-3,90.4,79.5,73.0,65.0,13.3,-29.1,44,8,1,29.93,29.80,6,0,7,0.00
2013-9-4,92.0,79.8,71.0,70.6,14.1,-26.0,50,9,1,30.05,29.91,10,0,10,0.00
2013-9-5,90.4,80.0,72.2,69.6,15.6,-25.6,51,11,1,30.07,29.99,10,0,10,0.00
2013-9-6,87.7,76.6,65.9,67.5,23.5,-33.8,52,18,1,30.09,30.01,13,1,13,0.00
2013-9-7,84.2,74.0,65.4,64.6,24.0,-33.4,53,19,1,30.09,29.97,11,0,11,0.00
2013-9-8,89.0,75.6,63.0,68.2,23.2,-30.4,52,17,1,29.99,29.88,10,0,11,0.00
2013-9-9,89.5,77.5,66.9,68.3,22.6,-29.8,50,15,1,30.13,29.96,7,0,10,0.00
2013-9-10,72.0,69.4,67.7,0.0,0.0,0.0,0,0,100,30.19,30.13,1,0,1,0.00
2013-9-11,89.4,74.8,66.4,67.7,16.9,-31.3,51,12,1,30.20,30.08,11,0,11,0.00
2013-9-12,89.7,75.5,65.3,68.5,17.5,-30.7,50,12,1,30.08,29.84,7,0,7,0.00
2013-9-13,89.3,77.9,69.0,68.8,24.2,-34.3,51,17,1,29.84,29.72,12,1,12,0.00
2013-9-14,81.8,72.1,65.8,61.9,25.1,-37.4,52,25,1,30.09,29.80,14,2,14,0.00
2013-9-15,85.7,74.1,64.7,63.5,20.0,-32.0,48,14,1,30.18,30.08,11,0,11,0.00
2013-9-16,87.7,76.7,68.5,60.6,11.9,-30.3,41,8,1,30.13,30.00,10,0,10,0.04
2013-9-17,80.3,71.9,65.2,60.5,32.5,-34.6,53,28,1,30.24,30.09,11,3,18,0.04
2013-9-18,79.0,66.8,55.0,60.2,30.7,-24.3,53,31,3,30.25,30.13,10,2,14,0.00
2013-9-19,69.3,65.2,62.7,62.9,53.1,48.6,80,65,60,30.10,30.07,0,0,0,0.00
2013-9-20,80.1,69.3,60.3,80.1,60.1,46.4,100,73,60,30.08,29.95,7,0,7,0.00
2013-9-21,86.3,74.0,66.7,86.3,61.6,52.4,100,66,60,29.96,29.72,8,0,11,0.00
2013-9-22,76.3,71.1,66.6,76.3,62.4,0.0,100,76,56,29.86,29.63,14,2,16,0.00
2013-9-23,77.8,66.7,56.6,77.7,57.2,41.1,100,73,56,30.05,29.85,11,1,12,0.00
2013-9-24,58.6,56.2,53.4,43.0,40.8,38.8,58,56,56,30.07,30.02,1,0,1,0.00
2013-9-30,78.7,71.5,57.2,78.7,67.8,42.2,100,89,56,30.07,29.98,7,1,11,0.00
2013-10-1,71.8,58.1,51.4,70.1,45.8,40.0,96,64,56,30.13,30.04,4,0,5,0.00
2013-10-2,86.5,69.5,55.4,86.5,62.1,42.6,100,79,56,30.13,30.04,5,0,10,0.00
2013-10-3,86.1,78.5,65.9,86.1,74.7,49.2,100,89,56,30.14,30.06,6,1,11,0.00
2013-10-4,87.2,74.2,63.4,87.2,66.1,48.7,100,77,56,30.14,30.04,7,0,10,0.00
2013-10-5,85.1,68.4,62.7,85.1,57.5,49.5,100,69,56,30.11,30.03,6,0,6,0.00
2013-10-6,82.8,68.4,65.0,80.8,55.8,51.7,94,64,56,30.07,29.93,9,0,9,0.00
2013-10-7,78.9,74.8,72.0,69.3,58.7,56.0,77,57,56,29.93,29.82,5,0,11,0.00
2013-10-8,72.4,63.3,56.6,56.6,53.0,48.8,83,70,57,30.10,29.86,21,6,21,0.10
2013-10-9,69.6,62.4,56.6,69.5,57.8,48.4,100,85,74,30.08,30.02,16,7,23,0.00
2013-10-10,67.0,64.1,58.0,67.0,60.7,52.9,100,89,72,30.00,29.93,12,2,15,0.00
2013-10-11,77.9,68.2,62.7,77.9,62.3,52.5,100,82,68,29.97,29.89,13,1,13,0.00
2013-10-12,79.4,69.5,61.7,79.4,63.6,52.3,100,82,65,30.05,29.93,9,2,15,0.00
2013-10-13,73.6,67.6,61.4,69.4,58.1,51.6,87,72,63,30.12,30.03,11,3,14,0.00
2013-10-14,68.0,67.9,67.6,59.1,55.8,55.6,74,65,65,30.10,30.09,11,5,11,0.00
2013-10-15,71.3,66.8,60.5,69.2,62.2,53.6,93,85,78,30.10,30.01,5,1,12,0.00
2013-10-16,73.1,69.6,65.7,72.9,64.7,54.9,100,86,68,30.03,29.95,5,2,9,0.00
2013-10-30,71.0,71.0,71.0,64.9,64.9,64.9,81,81,81,29.84,29.84,2,2,6,0.00
2013-10-31,66.1,66.1,66.1,61.1,61.1,61.1,84,84,84,29.73,29.73,0,0,0,0.00
2013-11-1,80.2,76.7,71.0,80.2,75.1,64.9,100,95,81,29.88,29.73,15,2,15,0.00
2013-11-2,66.1,58.7,51.3,61.4,57.5,51.2,100,96,84,29.93,29.73,7,0,11,0.00
2013-11-3,65.2,53.3,45.6,65.2,53.3,45.6,100,100,99,30.32,29.93,17,2,17,0.00
2013-11-4,62.9,50.8,41.3,62.9,50.7,41.3,100,100,95,30.48,30.32,18,2,22,0.00
2013-11-5,59.7,47.8,40.3,59.7,47.8,40.3,100,100,100,30.46,30.36,11,2,12,0.01
2013-11-6,76.9,65.5,52.6,76.9,64.9,52.6,100,98,87,30.36,30.09,11,1,12,0.00
2013-11-7,76.0,67.3,54.1,76.0,65.4,54.0,100,94,86,30.10,29.91,12,1,14,0.00
2013-11-8,54.1,47.2,44.7,54.1,47.2,44.7,100,100,100,30.26,30.06,15,4,16,0.00
2013-11-9,54.9,54.2,53.5,54.9,54.2,53.5,100,100,100,30.28,30.27,0,0,0,0.00
2013-11-10,65.0,54.1,46.0,64.6,54.1,46.0,100,100,100,30.23,30.11,1,0,1,0.00
2013-11-11,61.1,49.0,44.7,60.9,49.0,44.7,100,100,98,30.30,30.19,10,2,13,0.00
2013-11-12,60.3,46.1,38.7,60.3,46.1,38.7,100,100,100,30.33,30.06,23,4,27,0.00
2013-11-13,47.7,42.4,30.5,46.7,41.9,30.5,100,98,94,30.51,30.43,17,5,18,0.00
2013-11-14,58.4,49.4,23.7,55.8,47.7,23.7,100,94,84,30.51,30.37,6,0,8,0.00
2013-11-15,61.2,47.7,36.3,61.2,47.7,36.3,100,100,100,30.34,30.20,1,0,1,0.00
2013-11-16,72.5,63.8,60.4,72.5,63.4,59.8,100,99,98,30.21,30.15,2,0,2,0.00
2013-11-17,70.9,55.6,54.8,69.4,55.6,54.8,100,100,95,30.14,30.02,3,0,3,0.00
2013-11-18,82.1,78.2,70.5,82.1,77.8,64.8,100,99,94,29.89,29.77,8,1,10,0.00
2013-11-19,59.8,53.8,46.3,58.1,53.4,46.3,100,99,93,30.16,30.08,11,1,11,0.00
2013-11-20,55.7,48.5,40.6,55.7,48.5,40.6,100,100,100,30.36,30.16,16,6,18,0.00
2013-11-21,72.2,67.7,61.7,72.1,67.7,61.7,100,100,100,30.35,30.32,10,1,10,0.00
2013-11-23,65.3,61.2,50.8,65.3,61.2,50.8,100,100,100,30.12,30.03,16,2,16,0.08
2013-11-24,50.8,37.6,28.5,50.8,37.2,28.5,100,99,86,30.53,30.12,25,6,25,0.00
2013-11-25,42.8,32.2,24.3,40.7,32.1,24.3,100,100,92,30.58,30.36,7,0,8,0.00
2013-11-26,70.9,64.0,45.0,70.9,64.0,45.0,100,100,100,30.14,29.60,14,2,22,0.04
2013-11-27,69.2,52.5,33.9,69.1,52.5,33.9,100,100,100,30.19,29.46,19,2,19,0.19
2013-11-28,36.1,30.9,28.7,36.1,30.9,28.7,100,100,100,30.50,30.19,7,1,10,0.00
2013-11-29,42.3,33.3,28.3,42.3,33.3,28.3,100,100,100,30.56,30.47,12,1,13,0.00
2013-11-30,50.3,36.3,32.4,50.3,36.3,32.4,100,100,100,30.55,30.40,16,4,16,0.00
2013-12-1,59.1,52.7,42.8,59.1,52.7,42.8,100,100,100,30.27,30.00,6,0,6,0.00
2013-12-2,52.5,51.9,50.7,52.5,51.9,50.7,100,100,100,30.00,29.90,3,0,3,0.00
2013-12-3,63.4,56.1,42.4,63.3,56.1,42.4,100,100,100,30.01,29.91,5,0,6,0.00
2013-12-4,70.0,61.0,53.7,69.9,61.0,53.6,100,100,100,30.10,29.98,6,0,9,0.33
2013-12-5,79.5,66.4,52.5,79.4,66.4,52.5,100,100,100,30.17,30.06,12,0,12,0.00
2013-12-6,81.2,72.6,67.1,81.2,72.6,67.0,100,100,100,30.15,30.03,11,1,13,0.00
2013-12-7,70.3,57.4,44.3,70.3,57.4,44.3,100,100,100,30.39,30.06,21,4,21,0.21
2013-12-8,44.4,42.2,40.6,44.4,42.2,40.6,100,100,100,30.39,30.26,16,4,16,0.35
2013-12-9,63.2,53.1,40.9,63.2,53.1,40.9,100,100,100,30.27,30.05,6,0,6,0.00
2013-12-10,74.4,58.5,41.8,74.4,58.5,41.7,100,100,100,30.33,29.89,22,2,22,0.00
2013-12-11,52.9,41.7,30.9,52.5,41.6,30.9,100,99,92,30.47,30.29,11,0,11,0.00
2013-12-12,48.1,35.8,28.7,47.3,35.8,28.7,100,100,97,30.40,30.26,18,0,18,0.01
2013-12-13,55.3,38.7,25.7,51.7,37.7,25.7,100,97,85,30.43,30.29,9,0,10,0.00
2013-12-14,68.0,62.6,46.3,68.0,62.6,46.3,100,100,100,30.21,29.81,13,2,14,0.05
2013-12-15,70.8,54.6,-12.8,57.7,50.8,-13.3,100,88,53,30.10,29.74,12,1,14,0.96
2013-12-16,68.4,46.1,39.5,57.3,37.6,32.7,77,72,50,30.19,30.09,0,0,0,0.02
2013-12-17,55.7,47.6,41.0,41.2,37.5,34.0,76,69,56,30.18,30.00,0,0,0,0.00
2013-12-18,55.6,46.4,32.1,39.5,31.6,25.6,79,58,33,30.32,30.02,10,0,12,0.00
2013-12-19,63.1,45.8,29.9,45.4,35.9,24.2,100,71,42,30.37,30.26,7,0,7,0.00
2013-12-20,73.8,57.2,41.6,64.8,50.9,37.7,86,80,68,30.26,30.15,10,0,11,0.00
2013-12-21,78.6,64.8,50.1,77.4,61.9,44.8,99,90,66,30.18,30.07,12,1,12,0.00
2013-12-22,83.4,72.8,66.2,80.5,70.6,64.1,99,93,88,30.12,30.06,20,1,20,0.00
2013-12-23,80.3,70.8,56.9,79.3,68.9,56.6,99,94,89,30.11,29.99,15,1,15,0.00
2013-12-24,56.8,47.4,37.1,56.5,47.2,37.1,100,99,90,30.40,30.05,18,4,18,0.00
2013-12-25,46.0,36.4,29.3,40.7,34.8,28.9,100,94,79,30.52,30.34,12,2,12,0.00
2013-12-26,44.5,40.4,35.0,44.3,39.6,32.6,100,97,64,30.35,30.23,10,1,10,0.00
2013-12-27,54.7,41.9,33.1,42.8,37.1,31.6,94,84,59,30.43,30.32,10,1,12,0.00
2013-12-28,61.5,46.1,29.4,50.8,40.2,28.4,96,81,53,30.41,30.09,7,0,7,0.00
2013-12-29,72.0,62.6,48.7,66.9,57.5,45.5,89,84,77,30.09,29.75,20,2,23,0.00
2013-12-30,58.9,50.6,45.8,52.8,47.2,43.0,91,88,77,30.14,29.94,7,0,7,0.00
2013-12-31,56.0,48.3,39.0,47.0,43.8,37.2,93,85,63,30.37,30.10,12,1,13,0.00
2014-1-1,50.8,43.5,36.4,46.2,40.4,34.8,94,89,69,30.41,30.14,5,0,5,0.00
2014-1-2,53.3,50.3,46.2,50.2,47.3,43.4,90,90,88,30.14,29.61,11,0,13,0.00